DMSP 5D-2 F13 DEB, 40558

Orbit data source: Space-Track

DMSP 5D-2 F13 DEB, 40558 is space debris in SSO originally from a launch on Fri, 24 Mar 1995 UTC launched from the Air Force Western Test Range (AFWTR). Debris objects in space refer to the collection of defunct objects orbiting the Earth. Examples of debris include non-operational satellites, rocket bodies, and fragments generated from explosions, collisions, or faulty payload assembly.

Loading next visibility...
DMSP 5D-2 F13 DEB details
Identifier
40558, 1995-015DR
Orbit
SSO
Last TLE update9 hours ago
Origin
Flag of USUSAF SMC (US)
ManufacturerUnknown
MissionSpacecraft
Bus & MotorUnknown
MassUnknown
Launch date (UTC)
1995-03-24 (30 years ago)
Launch vehicleUnknown
Launch site
Air Force Western Test Range (AFWTR)
Object type
Payload
Rocket body
Debris
Shape & HBRUnknown
Radar Cross SectionSmall (<0.1 m²)

Expand to show TLE details & history

TLE from 9 hours ago
0 DMSP 5D-2 F13 DEB
1 40558U 95015DR  24361.39765933  .00008152  00000-0  38917-2 0  9999
2 40558  98.9346 336.7491 0044827 165.4185 194.8295 14.18909900502726
Epoch: 2024-12-26T09:32Z
Definitive object data (Epoch: 2024-12-26T09:32:37.766Z)
Latitude0.00002°
Longitude98.2141°
Altitude863.195 km
Speed7.405 km/s
True Right ascension22h 26m 59s
True Declination0° 00' 00"
Sunlit
Object was in daylight at TLE epoch
Visualization TLE readout
Latitude8.34038°
Longitude-80.08323°
Altitude799.169 km
Speed7.471 km/s
Apparent Right ascension08h 49m 30s
Apparent Declination-16° 38' 41"
Sunlit
Object is in full shadow
Visualization observer readout
Local Sidereal Time18:11:11
Azimuth292.6° NW
Elevation-48.604°
Doppler factor1
Orbital elements
Apogee altitude858.508 km
Perigee altitude793.918 km
Semi-major axis7,204.35 km
Eccentricity0.0044827
Inclination98.9346°
RAAN336.7491°
Arg. of periapsis165.4185°
True anomaly194.69874°
Mean anomaly194.8295°
Eccentric anomaly194.76405°
Mean motion3.54937 °/min
BSTAR0.0038917
Orbital period101.43 mins
Loading maneuver chart data...

DMSP 5D-2 F13 DEB Visibility forecast

Observer location: undefined°, undefined

Span
Click to sort rows by Start time (UTC) header in descending order
Start Az.
Max El. time (UTC)
Max El. Az.
Max El.
End time (UTC)
End Az.
8 mins2024-12-26 21:31:37.643Z120.684° SE2024-12-26 21:35:37.643Z72.344° E24.526°2024-12-26 21:39:37.643Z15.481° NNE
8 mins2024-12-26 23:12:37.643Z203.055° SW2024-12-26 23:15:37.643Z251.416° W32.069°2024-12-26 23:20:37.643Z328.137° NNW
8 mins2024-12-27 11:31:37.643Z14.797° NNE2024-12-27 11:34:37.643Z21.096° NNE43.93°2024-12-27 11:39:37.643Z194.411° SSW
|